{"data":{"norad_id":60942,"intl_designator":"2024-155U","name":"STARLINK-32184","alt_names":[],"object_type":"PAYLOAD","status":"ACTIVE","operator":null,"country":"US","launch_date":"2024-08-31","launch_site_code":"AFWTR","launch_vehicle":null,"mission":null,"orbit_class":"UNKNOWN","rcs_meters":null,"size_class":null,"mass_kg":null,"dimensions":null,"purposes":["comms"],"wikipedia_slug":null,"has_3d_model":false,"image_url":null,"decayed_at":null,"tle_current":{"epoch":"2026-05-25T03:18:24.395040Z","epoch_age_seconds":70114,"freshness":"FRESH","line1":"1 60942U 24155U   26145.13778235  .00062363  00000+0  20699-2 0  9999","line2":"2 60942  53.1591 134.7014 0002476 125.1799 234.9434 15.30666970 97996","mean_motion":15.3066697,"eccentricity":0.0002476,"inclination_deg":53.1591,"raan_deg":134.7014,"arg_perigee_deg":125.1799,"mean_anomaly_deg":234.9434,"bstar":0.0020699,"rev_number":9799,"period_min":94.076636409029,"perigee_km":472.12459081894,"apogee_km":475.51768048772,"semimajor_km":6851.9581356533,"source":"CELESTRAK","updated_at":"2026-05-25T13:38:19.321411Z"}}}